Regional Weather Roundup
Issued by NWS

Home | Current Version | Previous Version | Text Only | Print | Product List | Glossary Off
Versions: 1 2 3 4 5 6 7 8 9 10 11 12 13 14 15 16 17 18 19 20 21 22 23 24 25 26 27 28 29 30 31 32 33 34 35 36 37 38 39 40 41 42 43 44 45 46 47 48 49 50

000
ASUS43 KDMX 290203
RWRIA

WEATHER ROUNDUP FOR IOWA
NATIONAL WEATHER SERVICE DES MOINES IA
900 PM CDT WED SEP 28 2016

NOTE: "FAIR" INDICATES FEW OR NO CLOUDS BELOW 12,000 FEET WITH NO
SIGNIFICANT WEATHER AND/OR OBSTRUCTIONS TO VISIBILITY.

* - THESE STATIONS ARE NOT NWS STATIONS...THUS NOT UNDER NWS
QUALITY CONTROL.  THEY ALSO DO NOT REPORT WEATHER SUCH
AS PRECIPITATION OR FOG.

IAZ001>003-012>014-020>022-031>034-043>046-290300-
   NORTHWEST IOWA

CITY           SKY/WX    TMP DP  RH WIND       PRES   REMARKS
CARROLL *      CLEAR     50  46  87 N6        30.29R
CHEROKEE *     PTCLDY    54  50  86 CALM      30.32R
DENISON *      CLEAR     54  46  76 CALM      30.29R HAZE
LE MARS *      CLEAR     50  46  87 CALM      30.34R
ORANGE CITY *  PTCLDY    50  45  81 N3        30.33R
SHELDON *      PTCLDY    52  48  87 VRB5      30.31R
SIOUX CITY     CLEAR     56  47  71 N8        30.32R
SPENCER        CLEAR     51  46  83 NE8       30.32R
STORM LAKE *   CLEAR     54  46  76 N8        30.31R
$$

IAZ055>058-069>071-079>083-090>094-290300-
   SOUTHWEST IOWA

CITY           SKY/WX    TMP DP  RH WIND       PRES   REMARKS
ATLANTIC *     CLEAR     52  48  87 N3        30.29R
AUDUBON *      CLEAR     54  46  76 N6        30.30R
CLARINDA *       N/A     54  48  82 MISG      30.29R HAZE
COUNCIL BLFS * CLOUDY    57  48  72 N5        30.29R
CRESTON *      CLEAR     54  46  76 N7        30.28R
HARLAN  *      CLEAR     54  48  82 N6        30.33R
LAMONI         CLOUDY    54  48  80 NW7       30.25R
RED OAK *      CLEAR     54  48  82 NE3       30.29R
SHENANDOAH *   CLOUDY    61  50  67 NE6G14    30.29R
$$

IAZ047>049-059>061-072>074-084-290300-
   CENTRAL IOWA

CITY           SKY/WX    TMP DP  RH WIND       PRES   REMARKS
AMES           CLOUDY    57  50  77 N10       30.25R
ANKENY *         N/A    N/A N/A N/A MISG        N/A
BOONE *        PTCLDY    55  48  76 NW10      30.26R
CHARITON *       N/A     54  50  87 NW8       30.23R
DES MOINES     CLOUDY    60  49  66 N8        30.25R
GRINNELL*      MOCLDY    55  49  82 N6        30.23R
KNOXVILLE *    CLOUDY    57  50  77 NW7       30.22R
MARSHALLTOWN   MOCLDY    55  50  83 N7        30.23R
NEWTON *       CLOUDY    55  50  82 N7        30.23R
PELLA *        CLOUDY    56  49  77 NW5       30.24R
PERRY *        CLOUDY    56  50  79 NW6       30.27R
$$

IAZ004>006-015-016-023>025-035-036-290300-
   NORTH CENTRAL IOWA

CITY           SKY/WX    TMP DP  RH WIND       PRES   REMARKS
ALGONA *       CLEAR     54  48  82 N7        30.31R
CLARION *      CLEAR     54  50  87 N7        30.28R
ESTHERVILLE    CLEAR     49  47  93 N7        30.32R
FORT DODGE *   PTCLDY    54  45  71 N3        30.30R
MASON CITY     CLEAR     51  48  89 N7        30.30R
FOREST CITY *  MOCLDY    55  48  76 N8        30.29R
WEBSTER CITY * MOCLDY    55  50  82 N9        30.26R
IOWA FALLS *   CLOUDY    58  50  75 N7        30.26R
$$

IAZ007>011-017>019-026>030-037>042-050>054-066-290300-
   NORTHEAST IOWA

CITY           SKY/WX    TMP DP  RH WIND       PRES   REMARKS
CEDAR RAPIDS   PTCLDY    54  51  90 N7        30.20R
CHARLES CITY * PTCLDY    55  52  88 N7G14     30.26R
CLINTON *      CLEAR     51  49  92 N7        30.18R
DECORAH *      CLOUDY    57  50  77 N5        30.24R
DUBUQUE        CLEAR     53  49  86 NE8       30.21R
MONTICELLO *   CLEAR     55  52  88 CALM      30.20R
OELWEIN *      CLOUDY    57  50  77 N7        30.24R
WATERLOO       CLEAR     54  47  77 N8        30.24R
$$

IAZ064-065-067-068-078-290300-
   EAST CENTRAL IOWA

CITY           SKY/WX    TMP DP  RH WIND       PRES   REMARKS
DAVENPORT      CLEAR     53  49  86 N7        30.18R
IOWA CITY      PTCLDY    58  51  78 NW9       30.20R
MUSCATINE *    PTCLDY    59  48  67 N9        30.19R
QUAD CITIES    CLEAR     58  49  72 N7        30.17R
$$

IAZ062-063-075>077-085>089-095>099-290300-
   SOUTHEAST IOWA

CITY           SKY/WX    TMP DP  RH WIND       PRES   REMARKS
BURLINGTON     MOCLDY    57  49  74 N6        30.16R
FAIRFIELD *    CLOUDY    55  48  76 NW7       30.20R
FORT MADISON * CLOUDY    55  50  82 NW5       30.17R
KEOKUK *       PTCLDY    57  48  72 NW7       30.16R
OSKALOOSA *      N/A     50  47  88 NW7       30.22R
OTTUMWA        CLEAR     52  47  83 NW9       30.21R
WASHINGTON *     N/A    N/A N/A N/A MISG        N/A
$$

ABBREVIATIONS USED IN REMARKS
   TC - TEMPERATURES IN CELSIUS
  WCI - WIND CHILL INDEX
   HX - HEAT INDEX
  VSB - VISIBILITY
$$





USA.gov is the U.S. government's official web portal to all federal, state and local government web resources and services.